Regional Weather Roundup
Issued by NWS

Home | Current Version | Previous Version | Graphics & Text | Print | Product List | Glossary On
Versions: 1 2 3 4 5 6 7 8 9 10 11 12 13 14 15 16 17 18 19 20 21 22 23 24 25 26 27 28 29 30 31 32 33 34 35 36 37 38 39 40 41 42 43 44 45 46 47 48 49 50
000
ASUS43 KLOT 310103
RWRIL

ILLINOIS REGIONAL WEATHER ROUNDUP
NATIONAL WEATHER SERVICE CHICAGO/ROMEOVILLE IL
800 PM CDT TUE AUG 30 2016

NOTE: "FAIR" INDICATES FEW OR NO CLOUDS BELOW 12,000 FEET WITH NO
SIGNIFICANT WEATHER AND/OR OBSTRUCTIONS TO VISIBILITY.

* THESE STATIONS ARE NOT UNDER NWS QUALITY CONTROL. THEY ALSO MAY NOT
  REPORT WEATHER SUCH AS PRECIPITATION OR FOG.

ILZ001-002-007-009-015-016-024-310200-
NORTHWEST ILLINOIS

CITY           SKY/WX    TMP DP  RH WIND       PRES   REMARKS
MOLINE         PTCLDY    73  69  87 CALM      30.05F
STERLING*      LGT RAIN  72  70  93 CALM      30.06S
SAVANNA*       LGT RAIN  74  71  90 CALM      30.05S
$$

ILZ003-004-008-010-011-017-018-310200-
NORTH CENTRAL ILLINOIS

CITY           SKY/WX    TMP DP  RH WIND       PRES   REMARKS
ROCKFORD       MOCLDY    72  69  90 SW5       30.06S
FREEPORT*      CLOUDY    70  68  95 SW3       30.08R
ROCHELLE*      PTCLDY    69  69  99 CALM      30.06S FOG
$$

ILZ005-006-012>014-019>023-310200-
NORTHEAST ILLINOIS

CITY           SKY/WX    TMP DP  RH WIND       PRES   REMARKS
CHICAGO-OHARE  CLOUDY    75  66  73 W3        30.03S
CHICAGO-MIDWAY CLOUDY    77  66  68 NW6       30.03S
AURORA         CLOUDY    71  69  93 W3        30.05S
LANSING*       CLOUDY    76  70  83 CALM      30.03F
JOLIET*        CLOUDY    77  73  90 CALM      30.04S
WAUKEGAN       CLOUDY    72  68  87 CALM      30.03S
DUPAGE AIRPORT PTCLDY    73  68  84 CALM      30.04S
KANKAKEE*      CLOUDY    77  73  86 W3        30.05R
WHEELING       PTCLDY    75  66  73 NW3       30.04S
MORRIS*        PTCLDY    72  69  91 CALM      30.04R
ROMEOVILLE*    CLOUDY    74  71  92 CALM      30.04S
NORTHERLY ISL    N/A     74  66  76 MISG        N/A
$$

LMZ740>746-310200-
SOUTHERN LAKE MICHIGAN

STATION/POSITION SKY/WX   TEMP    WIND        PRES    VSBY  WAVE
                          AIR SEA DIR/SP/G                  HT/PER
                          (F)     (DEG/KT/KT) (MB)    (MI)  (FT/S)
SOUTHERN BUOY              74 76  280/  6/  8 1016.2          1/ 3
WILMETTE HARBOR            71 72  320/  4/  6   N/A           1/ 3
HARRISON CRIB              74     300/  5/  5   N/A
BURNHAM HARBOR             76      50/  3/  6   N/A
CALUMET HARBOR             74                 1016.5F
BURNS HARBOR               75     350/  6/ 13 1017.3
MICHIGAN CITY              76      10/  3/  3   N/A
MICHIGAN CITY 6N           77 76   10/  4/  6   N/A           1
ST. JOSEPH                 75 76   50/  2/  4 1016.5F         0
$$

ILZ025>027-034>036-040-047-049-050-058-095>099-310200-
WEST-CENTRAL ILLINOIS

CITY           SKY/WX    TMP DP  RH WIND       PRES   REMARKS
QUINCY         CLEAR     75  72  90 CALM      30.08S
GALESBURG*     CLEAR     75  71  87 CALM      30.07S
MACOMB*        PTCLDY    75  73  93 W3        30.09S
JACKSONVILLE*  PTCLDY    74  71  92 CALM      30.07S
PITTSFIELD*    PTCLDY    74  73  95 CALM      30.09R
$$

ILZ028>032-037-038-041>044-048-051>054-059>061-310200-
CENTRAL ILLINOIS

CITY           SKY/WX    TMP DP  RH WIND       PRES   REMARKS
PONTIAC        PTCLDY    73  73  98 W3        30.06S
BLOOMINGTON    MOCLDY    75  72  90 W5        30.08R
DECATUR        PTCLDY    76  69  79 NW6       30.07R
PEORIA         PTCLDY    77  75  93 CALM      30.06S
LACON*         MOCLDY    73  71  92 CALM      30.05R
LINCOLN*       MOCLDY    76  72  87 CALM      30.07R
SPRINGFIELD    CLOUDY    76  72  87 NW7       30.07R
TAYLORVILLE    MOCLDY    73  72  96 CALM      30.07S
$$

ILZ033-039-045-046-055>057-062-063-310200-
EAST-CENTRAL ILLINOIS

CITY           SKY/WX    TMP DP  RH WIND       PRES   REMARKS
CHAMPAIGN      PTCLDY    74  71  91 W6        30.07R
RANTOUL*       PTCLDY    76  73  91 W5        30.06R
MATTOON        CLOUDY    77  70  79 CALM      30.06R
PARIS*         CLOUDY    77  74  89 CALM      30.06S
$$

ILZ079-100>102-310200-
SOUTHWEST ILLINOIS

CITY           SKY/WX    TMP DP  RH WIND       PRES   REMARKS
ALTON          MOCLDY    72  72 100 CALM      30.06R FOG
BELLEVILLE     CLOUDY    74  74  99 N3        30.04R
CAHOKIA*       CLOUDY    74  71  91 NE3       30.04R
SPARTA*        PTCLDY    74  70  87 N3        30.05R
$$

ILZ064>066-069>071-074>076-080>082-084>086-088>090-092>094-310200-
SOUTH-CENTRAL ILLINOIS

CITY           SKY/WX    TMP DP  RH WIND       PRES   REMARKS
CARBONDALE     CLEAR     75  68  78 CALM      30.03S
EFFINGHAM*     PTCLDY    77  73  90 CALM      30.06S
MARION         CLEAR     81  70  69 NW6       30.04R HX  84
MT. VERNON     PTCLDY    79  68  69 CALM      30.05R HX  81
CENTRALIA*     CLOUDY    77  74  91 NW5       30.04S
SALEM*         CLOUDY    77  73  88 W3        30.05S
METROPOLIS*    CLEAR     80  75  86 CALM      30.01S HX  84
$$

ILZ067-068-072-073-078-083-087-091-310200-
SOUTHEAST ILLINOIS

CITY           SKY/WX    TMP DP  RH WIND       PRES   REMARKS
LAWRENCEVILLE  CLOUDY    81  77  88 N9        30.03R HX  88
FLORA*         PTCLDY    80  74  83 NW7       30.04R HX  84
FAIRFIELD*     PTCLDY    80  75  84 NW3       30.02R HX  84
HARRISBURG*    CLEAR     82  76  82 N3        30.02R HX  88
ROBINSON*      CLOUDY    75  70  85 SW3       30.06R
CARMI*         CLEAR     79  77  92 CALM      30.01R HX  83
$$

ABBREVIATIONS USED IN REMARKS
   TC - TEMPERATURE IN CELSIUS
  WCI - WIND CHILL INDEX
   HX - HEAT INDEX
  VSB - VISIBILITY
$$




USA.gov is the U.S. government's official web portal to all federal, state and local government web resources and services.